Weather reports worldwide

Advertisment
Alt Ruppin, Germany (10271): temperature & dewpoint: 24.05.2020 22:00:00 - 30.05.2020 22:00:00 (CEST)Alt Ruppin, Germany (10271): temperature 5cm & temperature -5cm: 24.05.2020 22:00:00 - 30.05.2020 22:00:00 (CEST)Alt Ruppin, Germany (10271): temperature -20cm & temperature -100cm: 24.05.2020 22:00:00 - 30.05.2020 22:00:00 (CEST)Alt Ruppin, Germany (10271): wind speed & gusts: 24.05.2020 22:00:00 - 30.05.2020 22:00:00 (CEST)Alt Ruppin, Germany (10271): wind direction: 24.05.2020 22:00:00 - 30.05.2020 22:00:00 (CEST)Alt Ruppin, Germany (10271): reduced air pressure: 24.05.2020 22:00:00 - 30.05.2020 22:00:00 (CEST)Alt Ruppin, Germany (10271): visibility: 24.05.2020 22:00:00 - 30.05.2020 22:00:00 (CEST)Alt Ruppin, Germany (10271): precipitation: 24.05.2020 22:00:00 - 30.05.2020 22:00:00 (CEST)
Date & Time tt [°C] td [°C] tt 5cm [°C] tt -5cm [°C] tt -20cm [°C] tt -100cm [°C] ff [km/h] ff [kn] fx [km/h] fx [kn] dd ppp [hPa] vv [km] rr [mm]
30.05.2020 22:00:00 12,2 3,6 9,7 17,3 18,7 14,5 8 4 24 13 NNE 1024,1 63 0,0
30.05.2020 21:00:00 13,7 2,9 12,4 19,3 18,9 14,5 11 6 29 16 NE 1023,7 69 0,0
30.05.2020 20:00:00 15,5 2,6 16,9 21,5 19,0 14,5 15 8 44 24 NNE 1023,3 68 0,0
30.05.2020 19:00:00 16,1 2,6 18,5 22,5 18,9 14,5 16 9 40 22 NNE 1023,4 65 0,0
30.05.2020 18:00:00 17,4 3,1 21,9 23,3 18,7 14,5 19 11 45 24 NNE 1023,5 50 0,0
30.05.2020 17:00:00 17,4 3,3 23,6 23,9 18,4 14,5 21 12 42 23 N 1023,6 75 0,0
30.05.2020 16:00:00 16,4 3,2 19,2 22,6 18,2 14,5 15 8 40 22 NE 1024,1 69 0,0
30.05.2020 15:00:00 16,5 3,3 18,9 21,9 17,9 14,5 18 10 45 24 NNE 1024,6 61 0,0
30.05.2020 14:00:00 17,5 3,9 21,3 22,0 17,6 14,5 16 9 37 20 NNE 1024,8 48 0,0
30.05.2020 13:00:00 17,2 3,2 19,8 21,8 17,2 14,5 15 8 42 23 NNE 1025,2 48 0,0
30.05.2020 12:00:00 18,7 3,2 24,9 21,0 16,7 14,5 13 7 46 25 NNE 1025,2 40 0,0
30.05.2020 11:00:00 17,1 2,9 21,4 20,7 16,1 14,5 17 9 40 22 NNE 1025,6 36 0,0
30.05.2020 10:00:00 16,9 2,9 22,2 19,3 15,6 14,5 13 7 29 16 N 1025,6 57 0,0
30.05.2020 09:00:00 15,5 3,0 19,5 16,4 15,4 14,5 13 7 26 14 NNE 1026,2 39 0,0
30.05.2020 08:00:00 13,8 7,1 17,5 13,7 15,4 14,5 6 4 14 8 NNE 1026,6 66 0,0
30.05.2020 07:00:00 10,7 6,5 9,0 12,9 15,6 14,5 5 3 10 6 N 1026,8 61 0,0
30.05.2020 06:00:00 10,8 5,4 10,4 13,3 15,8 14,4 4 2 10 5 N 1027,1 58 0,0
30.05.2020 05:00:00 10,8 4,7 9,8 13,5 16,0 14,4 5 3 11 6 NNE 1027,1 63 0,0
30.05.2020 04:00:00 10,9 4,5 10,1 13,7 16,3 14,4 5 3 13 7 NE 1027,1 75 0,0
30.05.2020 03:00:00 11,0 4,9 10,2 13,8 16,5 14,4 5 3 15 8 NE 1027,0 60 0,0
30.05.2020 02:00:00 10,8 5,2 9,7 13,8 16,9 14,4 6 3 14 8 NNE 1027,0 51 0,0
30.05.2020 01:00:00 10,8 5,4 8,3 14,1 17,3 14,4 7 4 13 7 NNE 1027,0 59 0,0
30.05.2020 00:00:00 11,5 5,2 8,3 14,8 17,7 14,4 5 3 13 7 NE 1027,1 52 0,0
29.05.2020 23:00:00 13,0 4,9 9,7 15,8 18,1 14,4 5 3 15 8 NE 1027,0 59 0,0
29.05.2020 22:00:00 14,4 3,6 8,9 17,1 18,5 14,3 5 3 15 8 NNE 1026,8 55 0,0
29.05.2020 21:00:00 16,7 3,7 14,2 18,7 18,8 14,3 6 3 19 11 NE 1026,4 57 0,0
29.05.2020 20:00:00 17,4 4,4 16,1 20,3 18,9 14,3 6 4 16 9 NNE 1026,3 53 0,0
29.05.2020 19:00:00 18,0 6,5 20,6 20,7 19,0 14,3 3 1 13 7 E 1026,6 47 0,0
29.05.2020 18:00:00 18,4 4,8 19,9 21,6 19,0 14,3 4 2 17 9 ENE 1026,8 63 0,0
29.05.2020 17:00:00 17,7 4,5 18,3 22,1 19,0 14,3 13 7 29 16 NNE 1027,4 56 0,0
29.05.2020 16:00:00 19,2 2,3 21,1 24,4 18,6 14,3 11 6 22 12 N 1027,5 54 0,0
29.05.2020 15:00:00 19,4 1,8 23,6 24,1 18,3 14,3 11 6 22 12 NNW 1028,1 49 0,0
29.05.2020 14:00:00 19,5 1,5 22,6 23,5 17,8 14,3 6 3 20 11 NE 1028,9 48 0,0
29.05.2020 13:00:00 18,7 1,5 21,5 23,4 17,3 14,3 10 5 21 11 N 1029,4 68 0,0
29.05.2020 12:00:00 19,0 1,3 23,3 23,4 16,4 14,3 5 3 16 9 NNW 1030,0 71 0,0
29.05.2020 11:00:00 18,0 1,7 24,0 21,7 15,7 14,3 5 3 11 6 W 1030,4 75 0,0
29.05.2020 10:00:00 16,6 2,2 22,4 18,6 15,1 14,3 5 3 11 6 ENE 1030,6 74 0,0
29.05.2020 09:00:00 15,3 5,7 19,1 15,3 14,8 14,3 5 3 12 6 ESE 1030,6 52 0,0
29.05.2020 08:00:00 12,6 6,4 15,3 12,3 14,9 14,2 5 3 12 6 E 1031,0 60 0,0
29.05.2020 07:00:00 9,5 6,2 9,8 11,1 15,1 14,2 4 2 10 5 ENE 1031,1 53 0,0
29.05.2020 06:00:00 6,1 5,0 3,7 11,0 15,5 14,2 2 1 10 6 NE 1030,9 37 0,0
29.05.2020 05:00:00 6,5 5,0 3,1 11,4 15,9 14,2 4 2 16 8 NNE 1031,0 50 0,0
29.05.2020 04:00:00 7,5 5,3 4,9 11,8 16,3 14,2 7 4 13 7 NNE 1031,1 56 0,0
29.05.2020 03:00:00 6,9 4,5 3,2 12,4 16,8 14,1 5 3 8 5 NNE 1031,0 66 0,0
29.05.2020 02:00:00 7,3 4,1 3,2 13,2 17,3 14,1 3 2 9 5 NE 1030,9 55 0,0
29.05.2020 01:00:00 9,0 4,2 5,9 14,1 17,8 14,1 4 2 13 7 NE 1030,9 72 0,0
29.05.2020 00:00:00 10,1 3,9 6,7 15,1 18,3 14,1 6 3 14 8 NNE 1030,6 68 0,0
28.05.2020 23:00:00 11,0 3,5 7,0 16,2 18,9 14,1 6 4 11 6 NNE 1030,5 71 0,0
28.05.2020 22:00:00 13,0 3,3 9,2 17,9 19,3 14,0 6 4 17 9 NNE 1030,3 75 0,0
28.05.2020 21:00:00 15,2 2,9 13,3 20,1 19,7 14,0 10 6 24 13 NNE 1029,8 67 0,0
28.05.2020 20:00:00 16,9 5,3 18,4 22,6 19,8 14,0 11 6 34 18 NE 1029,4 64 0,0
28.05.2020 19:00:00 18,0 3,0 19,7 24,2 19,7 14,0 15 8 34 18 NNE 1029,1 69 0,0
28.05.2020 18:00:00 19,2 3,7 23,7 24,1 19,5 14,0 13 7 39 21 N 1028,9 61 0,0
28.05.2020 17:00:00 18,3 3,2 19,5 25,5 19,2 14,0 15 8 34 19 NNE 1029,2 53 0,0
28.05.2020 16:00:00 19,8 3,2 23,6 25,3 18,8 14,0 17 9 36 19 NNW 1028,9 56 0,0
28.05.2020 15:00:00 18,5 3,4 20,8 25,3 18,4 14,0 17 9 33 18 NNW 1029,5 59 0,0
28.05.2020 14:00:00 18,7 5,1 25,2 23,5 17,9 14,0 19 10 35 19 N 1029,6 66 0,0
28.05.2020 13:00:00 17,8 5,7 25,0 23,2 17,4 13,9 16 9 31 17 N 1030,0 43 0,0
28.05.2020 12:00:00 16,9 5,0 22,2 23,0 16,7 13,9 12 7 34 18 N 1030,3 57 0,0
28.05.2020 11:00:00 16,7 4,2 23,1 21,2 16,1 13,9 16 9 34 18 N 1030,4 36 0,0
28.05.2020 10:00:00 15,1 4,5 19,7 18,4 15,7 13,9 16 9 31 17 NNW 1030,5 55 0,0
28.05.2020 09:00:00 13,7 6,3 18,1 16,2 15,6 13,9 14 8 25 13 NW 1030,9 43 0,0
28.05.2020 08:00:00 12,7 7,2 15,3 13,8 15,7 13,8 12 7 21 12 NNW 1030,9 35 0,0
28.05.2020 07:00:00 11,1 7,2 11,6 13,1 15,9 13,8 7 4 16 9 NW 1030,8 32 0,0
28.05.2020 06:00:00 10,7 6,9 9,4 13,5 16,2 13,8 6 3 20 11 NW 1030,6 32 0,0
28.05.2020 05:00:00 11,3 6,7 10,2 14,1 16,6 13,8 10 5 17 9 NNW 1030,6 39 0,0
28.05.2020 04:00:00 11,8 7,2 10,7 14,6 16,9 13,7 8 5 17 9 NW 1030,5 43 0,0
28.05.2020 03:00:00 12,7 7,4 11,4 15,4 17,2 13,7 5 3 12 7 NNW 1030,4 50 0,0
28.05.2020 02:00:00 13,3 7,1 12,3 15,9 17,5 13,7 6 3 18 10 NNE 1030,3 46 0,0
28.05.2020 01:00:00 14,1 6,8 13,3 16,5 17,8 13,7 9 5 30 16 N 1030,8 44 0,0
28.05.2020 00:00:00 14,7 9,5 14,0 17,2 18,1 13,7 13 7 23 12 NNW 1030,6 38 0,0
27.05.2020 23:00:00 15,3 8,6 14,5 17,8 18,5 13,7 12 6 27 14 NNW 1030,4 55 0,0
27.05.2020 22:00:00 16,3 8,5 15,7 18,8 18,8 13,7 12 7 27 14 N 1030,0 60 0,0
27.05.2020 21:00:00 17,4 8,1 17,0 19,9 19,1 13,6 15 8 29 16 N 1029,4 41 0,0
27.05.2020 20:00:00 18,8 8,9 18,5 21,1 19,4 13,6 12 7 26 14 N 1028,9 36 0,0
27.05.2020 19:00:00 19,9 7,3 19,7 22,6 19,5 13,6 7 4 25 14 NW 1029,1 49 0,0
27.05.2020 18:00:00 20,8 5,5 21,4 25,4 19,3 13,6 12 6 27 14 NW 1029,2 55 0,0
27.05.2020 17:00:00 21,7 4,9 25,3 26,9 18,8 13,6 11 6 24 13 W 1029,5 70 0,0
27.05.2020 16:00:00 21,8 7,9 27,5 25,3 18,4 13,6 5 3 17 9 W 1030,2 43 0,0
27.05.2020 15:00:00 20,1 8,3 22,7 25,6 17,8 13,6 6 4 21 12 WSW 1030,8 52 0,0
27.05.2020 14:00:00 21,3 6,6 26,8 26,1 17,0 13,6 8 4 20 11 W 1031,4 52 0,0
27.05.2020 13:00:00 19,9 6,9 23,6 26,3 16,0 13,6 6 4 17 9 SW 1031,8 51 0,0
27.05.2020 12:00:00 20,6 8,2 26,7 23,8 15,1 13,6 9 5 16 9 WSW 1032,4 55 0,0
27.05.2020 11:00:00 18,8 7,0 24,2 20,4 14,2 13,6 8 4 15 8 WSW 1033,0 35 0,0
27.05.2020 10:00:00 18,0 6,4 22,7 17,6 13,6 13,6 5 3 11 6 WSW 1033,2 39 0,0
27.05.2020 09:00:00 16,4 5,7 19,5 14,4 13,3 13,6 6 3 10 5 W 1033,6 42 0,0
27.05.2020 08:00:00 13,8 8,0 15,7 11,4 13,2 13,6 2 1 4 2 SE 1033,8 47 0,0
27.05.2020 07:00:00 9,0 6,1 8,4 9,8 13,5 13,6 0 0 3 1 N 1034,0 42 0,0
27.05.2020 06:00:00 5,3 4,3 4,0 9,6 13,8 13,6 1 1 3 2 NNE 1034,1 35 0,0
27.05.2020 05:00:00 5,3 4,5 3,0 10,0 14,2 13,6 0 0 3 2 N 1034,2 29 0,0
27.05.2020 04:00:00 6,2 5,0 3,7 10,6 14,6 13,6 2 1 4 2 N 1034,5 41 0,0
27.05.2020 03:00:00 6,9 5,4 4,4 11,3 15,0 13,6 0 0 4 2 N 1034,5 42 0,0
27.05.2020 02:00:00 7,9 6,1 5,0 12,0 15,5 13,6 3 1 3 2 NNW 1034,8 55 0,0
27.05.2020 01:00:00 8,8 6,6 6,3 12,7 15,9 13,6 2 1 4 2 N 1034,9 51 0,0
27.05.2020 00:00:00 9,9 6,4 6,3 13,7 16,4 13,6 2 1 4 2 NNE 1034,8 52 0,0
26.05.2020 23:00:00 11,0 7,1 7,4 14,9 16,9 13,6 2 1 4 2 ENE 1034,7 52 0,0
26.05.2020 22:00:00 12,9 7,1 8,9 16,5 17,3 13,6 3 2 8 4 NNE 1034,6 67 0,0
26.05.2020 21:00:00 16,3 5,7 12,2 18,9 17,6 13,6 3 2 15 8 NE 1033,9 56 0,0
26.05.2020 20:00:00 18,8 4,5 18,9 21,8 17,6 13,6 6 3 20 11 ENE 1033,7 58 0,0
26.05.2020 19:00:00 20,1 3,8 23,7 23,6 17,3 13,6 8 5 22 12 NNE 1033,5 68 0,0
26.05.2020 18:00:00 20,6 3,5 25,0 24,7 16,7 13,6 9 5 21 11 N 1033,6 55 0,0
26.05.2020 17:00:00 21,0 3,3 26,5 24,2 16,0 13,6 10 5 24 13 N 1033,7 59 0,0
26.05.2020 16:00:00 20,7 2,1 26,1 23,2 15,4 13,7 11 6 23 12 NNE 1033,9 60 0,0
26.05.2020 15:00:00 19,6 4,6 23,7 20,6 14,8 13,7 7 4 22 12 NE 1034,2 57 0,0
26.05.2020 14:00:00 18,0 7,7 19,1 18,6 14,3 13,7 7 4 11 6 N 1034,4 42 0,0
26.05.2020 13:00:00 17,4 8,5 21,6 17,7 13,8 13,7 6 3 16 9 N 1034,6 44 0,0
26.05.2020 12:00:00 17,7 8,2 23,2 16,8 13,3 13,7 5 3 17 9 NE 1034,7 42 0,0
26.05.2020 11:00:00 16,0 9,3 17,7 16,3 12,9 13,7 9 5 16 9 NNW 1034,7 57 0,0
26.05.2020 10:00:00 15,6 10,0 19,4 15,3 12,4 13,8 10 5 18 10 N 1034,8 49 0,0
26.05.2020 09:00:00 12,9 9,6 13,5 12,3 12,2 13,8 4 2 16 9 NE 1034,7 50 0,0
26.05.2020 08:00:00 11,8 8,7 12,5 11,0 12,1 13,8 7 4 15 8 N 1034,4 31 0,0
26.05.2020 07:00:00 10,8 8,2 10,1 10,3 12,1 13,8 7 4 11 6 NNW 1034,1 35 0,0
26.05.2020 06:00:00 8,2 7,5 7,8 9,1 12,3 13,8 4 2 11 6 NW 1033,9 17 0,0
26.05.2020 05:00:00 7,3 6,8 5,9 8,7 12,5 13,8 6 3 11 6 WNW 1033,5 10 0,0
26.05.2020 04:00:00 7,3 6,8 6,1 9,0 12,8 13,8 7 4 11 6 WNW 1033,1 11 0,0
26.05.2020 03:00:00 8,1 7,9 5,5 9,2 13,1 13,8 5 3 8 4 W 1033,0 8 0,0
26.05.2020 02:00:00 7,6 7,1 4,5 9,8 13,4 13,8 0 0 7 4 N 1032,9 7 0,0
26.05.2020 01:00:00 9,3 8,2 6,4 10,5 13,7 13,9 5 3 9 5 NW 1032,8 24 0,0
26.05.2020 00:00:00 10,1 8,4 7,5 11,3 14,0 13,9 5 3 11 6 NW 1032,4 30 0,0
25.05.2020 23:00:00 11,4 8,7 8,7 12,2 14,2 13,9 5 3 10 6 NW 1032,1 34 0,0
25.05.2020 22:00:00 12,8 8,7 11,6 13,2 14,4 13,9 4 2 13 7 NW 1031,8 41 0,0
25.05.2020 21:00:00 13,5 8,6 12,8 13,8 14,5 13,9 7 4 17 9 NNW 1031,1 43 0,0
25.05.2020 20:00:00 14,0 8,5 13,8 14,4 14,6 13,9 9 5 17 9 NW 1030,3 45 0,0
25.05.2020 19:00:00 14,0 8,4 13,9 14,6 14,6 13,9 7 4 21 12 NNW 1030,0 41 0,0
25.05.2020 18:00:00 14,4 8,3 15,4 15,4 14,5 14,0 10 5 26 14 NW 1029,6 40 0,0
25.05.2020 17:00:00 13,9 7,9 14,5 16,4 14,3 14,0 15 8 33 18 NW 1029,2 36 0,0
25.05.2020 16:00:00 13,7 7,9 15,0 16,8 14,1 14,0 15 8 35 19 NW 1028,9 37 0,0
25.05.2020 15:00:00 12,6 8,2 14,0 14,4 14,0 14,0 13 7 29 15 NW 1028,9 38 0,0
25.05.2020 14:00:00 11,9 8,3 12,8 14,5 13,9 14,0 12 6 34 18 NW 1028,4 38 0,0
25.05.2020 13:00:00 11,8 8,2 12,9 14,4 13,7 14,0 14 7 29 15 NW 1027,9 49 0,0
25.05.2020 12:00:00 11,7 8,8 12,4 14,5 13,6 14,1 10 6 27 15 NW 1027,4 49 0,0
25.05.2020 11:00:00 10,3 8,9 10,6 13,2 13,5 14,1 11 6 30 16 NW 1027,0 19 0,5
25.05.2020 10:00:00 11,3 7,2 12,4 13,2 13,4 14,1 16 9 33 18 WNW 1026,5 42 0,0
25.05.2020 09:00:00 11,7 7,2 12,7 12,9 13,3 14,1 14 8 32 17 WNW 1025,8 42 0,0
25.05.2020 08:00:00 11,3 7,7 11,5 12,2 13,3 14,1 12 6 29 16 WNW 1025,2 32 0,0
25.05.2020 07:00:00 10,8 8,4 10,2 11,6 13,3 14,1 10 5 18 10 W 1025,0 28 0,2
25.05.2020 06:00:00 10,5 8,7 9,9 11,3 13,5 14,1 8 4 19 10 W 1024,8 27 0,0
25.05.2020 05:00:00 10,2 8,4 9,8 11,2 13,6 14,1 10 5 19 10 W 1024,4 25 0,0
25.05.2020 04:00:00 10,2 7,9 9,7 11,1 13,8 14,1 13 7 23 13 W 1024,1 34 0,0
25.05.2020 03:00:00 10,4 7,2 9,9 11,2 14,0 14,1 13 7 27 14 W 1024,2 36 0,0
25.05.2020 02:00:00 10,9 6,6 10,1 11,5 14,2 14,2 14 8 29 16 W 1024,3 34 0,0
25.05.2020 01:00:00 10,8 7,5 9,5 11,7 14,4 14,2 11 6 22 12 W 1024,3 34 0,0
25.05.2020 00:00:00 10,9 8,0 9,6 11,8 14,7 14,2 12 7 26 14 W 1024,1 40 0,0
24.05.2020 23:00:00 10,8 8,7 9,0 11,9 15,0 14,2 10 5 18 10 W 1024,0 39 0,0
24.05.2020 22:00:00 10,5 8,8 9,0 12,8 15,4 14,2 8 4 16 9 W 1024,0 41 0,0

tt = temperature
td = dewpoint
tt 5cm = temperature 5cm
tt -5cm = temperature -5cm
tt -20cm = temperature -20cm
tt -100cm = temperature -100cm
ff = wind speed
fx = gusts
dd = wind direction
ppp = reduced air pressure
vv = visibility
rr = precipitation

Next stations